{"data":{"norad_id":58546,"intl_designator":"2023-192R","name":"STARLINK-31050","alt_names":[],"object_type":"PAYLOAD","status":"ACTIVE","operator":null,"country":"US","launch_date":"2023-12-08","launch_site_code":"AFWTR","launch_vehicle":null,"mission":null,"orbit_class":"UNKNOWN","rcs_meters":null,"size_class":null,"mass_kg":null,"dimensions":null,"purposes":["comms"],"wikipedia_slug":null,"has_3d_model":false,"image_url":null,"decayed_at":null,"tle_current":{"epoch":"2026-09-20T22:15:41.950368Z","epoch_age_seconds":109872,"freshness":"FRESH","line1":"1 58546U 23192R   26263.92756887 -.00001491  00000+0 -32993-4 0  9992","line2":"2 58546  53.1578 231.8758 0001739  87.1478 272.9723 15.34392867155931","mean_motion":15.34392867,"eccentricity":0.0001739,"inclination_deg":53.1578,"raan_deg":231.8758,"arg_perigee_deg":87.1478,"mean_anomaly_deg":272.9723,"bstar":-3.2993e-5,"rev_number":15593,"period_min":93.848194355559,"perigee_km":461.53481526385,"apogee_km":463.91406687305,"semimajor_km":6840.8614410684,"source":"CELESTRAK","updated_at":"2026-09-21T09:00:33.915204Z"}}}